Rogers, AR

12:18 AM CDT on August 21, 2017 (GMT -0500)
Rogers Municipal-Carter

Weather History for KROG - May, 2014

Change the Weather History Date:

Thursday, May 15, 2014

  Actual Average Record
Temperature  
Mean Temperature 51 °F -  
Max Temperature 63 °F 72 °F 84 °F (2001)
Min Temperature 39 °F 54 °F 39 °F (2014)
Degree Days  
Heating Degree Days 14    
Growing Degree Days 1 (Base 50)    
Moisture  
Dew Point 38 °F    
Average Humidity 64    
Maximum Humidity 93    
Minimum Humidity 35    
Precipitation  
Precipitation 0.00 in - - ()
Sea Level Pressure  
Sea Level Pressure 30.15 in    
Wind  
Wind Speed 7 mph (West)    
Max Wind Speed 21 mph    
Max Gust Speed 25 mph    
Visibility 10 miles    
Events      
Averages and records for this station are not official NWS values.
T = Trace of Precipitation, MM = Missing Value Source: NWS Daily Summary

Daily Weather History Graph

Daily Weather History Graph

Search for Another Location

Airport or City:

Trip Planner

Search our weather history database for the weather conditions in past years. The results will help you decide how hot, cold, wet, or windy it might be!

Date:

Astronomy

May. 15, 2014 Rise Set
Actual Time 6:09 AM CDT 8:16 PM CDT
Civil Twilight 5:41 AM CDT 8:45 PM CDT
Nautical Twilight 5:06 AM CDT 9:20 PM CDT
Astronomical Twilight 4:28 AM CDT 9:58 PM CDT
Moon 9:25 PM CDT (5/15) 6:56 AM CDT (5/15)
Length of Visible Light 15h 03m
Length of Day
14h 06m
Full, 99% of the Moon is Illuminated
May 15
Full
May 21
Last Quarter
May 28
New
Jun 5
First Quarter
Jun 12
Full

Hourly Weather History & Observations

Time (CDT) Temp. Windchill Dew Point Humidity Pressure Visibility Wind Dir Wind Speed Gust Speed Precip Events Conditions
12:57 AM 44.1 °F 41.5 °F 41.0 °F 89% 30.18 in 10.0 mi SSW 4.6 mph - N/A   Clear
1:57 AM 43.0 °F 39.5 °F 39.9 °F 89% 30.17 in 10.0 mi WSW 5.8 mph - N/A   Partly Cloudy
2:57 AM 42.1 °F 40.2 °F 39.0 °F 89% 30.15 in 10.0 mi South 3.5 mph - N/A   Clear
3:57 AM 42.1 °F - 37.9 °F 85% 30.15 in 10.0 mi Calm Calm - N/A   Clear
4:57 AM 39.9 °F 37.8 °F 37.9 °F 93% 30.15 in 10.0 mi South 3.5 mph - N/A   Clear
5:57 AM 43.0 °F 40.3 °F 39.0 °F 86% 30.16 in 10.0 mi SSW 4.6 mph - N/A   Overcast
6:57 AM 44.1 °F 40.8 °F 39.9 °F 85% 30.17 in 10.0 mi South 5.8 mph - N/A   Overcast
7:57 AM 48.0 °F - 42.1 °F 80% 30.16 in 10.0 mi SSW 9.2 mph - N/A   Partly Cloudy
8:57 AM 50.0 °F - 44.1 °F 80% 30.16 in 10.0 mi WSW 9.2 mph - N/A   Mostly Cloudy
9:57 AM 55.0 °F - 44.1 °F 67% 30.17 in 10.0 mi West 11.5 mph - N/A   Clear
10:57 AM 59.0 °F - 46.0 °F 62% 30.16 in 10.0 mi WNW 9.2 mph - N/A   Clear
11:57 AM 60.1 °F - 44.1 °F 55% 30.16 in 10.0 mi NW 10.4 mph - N/A   Clear
12:57 PM 62.1 °F - 43.0 °F 50% 30.15 in 10.0 mi West 11.5 mph 19.6 mph N/A   Scattered Clouds
1:57 PM 63.0 °F - 44.1 °F 50% 30.14 in 10.0 mi West 15.0 mph 20.7 mph N/A   Mostly Cloudy
2:57 PM 63.0 °F - 37.0 °F 38% 30.13 in 10.0 mi West 20.7 mph 25.3 mph N/A   Mostly Cloudy
3:57 PM 61.0 °F - 37.0 °F 41% 30.13 in 10.0 mi WNW 11.5 mph - N/A   Scattered Clouds
4:57 PM 59.0 °F - 36.0 °F 42% 30.13 in 10.0 mi WNW 15.0 mph 24.2 mph N/A   Clear
5:57 PM 59.0 °F - 34.0 °F 39% 30.11 in 10.0 mi NW 15.0 mph 18.4 mph N/A   Clear
6:57 PM 59.0 °F - 30.9 °F 35% 30.13 in 10.0 mi NW 9.2 mph - N/A   Clear
7:57 PM 55.0 °F - 28.9 °F 37% 30.14 in 5.0 mi NNW 4.6 mph - N/A   Haze
8:57 PM 54.0 °F - 27.0 °F 35% 30.15 in 10.0 mi Calm Calm - N/A   Clear
9:57 PM 48.0 °F - 37.9 °F 68% 30.16 in 10.0 mi Calm Calm - N/A   Clear
10:57 PM 46.9 °F - 36.0 °F 66% 30.16 in 10.0 mi Calm Calm - N/A   Clear
11:57 PM 45.0 °F - 36.0 °F 71% 30.15 in 10.0 mi Calm Calm - N/A   Clear